Radiation Dose at Monitoring Post of Fukushima Daini Nuclear Power Station
Date,Time,MP-1(microSv/h),MP-2(microSv/h),MP-3(microSv/h),MP-4(microSv/h),MP-5(microSv/h),MP-6(microSv/h),MP-7(microSv/h),Wind Direction,Wind Velocity(m/s),Rain
2017/10/24,00:00,0.320,0.204,0.332,0.315,0.307,0.162,0.098,north,9.5,No
2017/10/24,00:10,0.321,0.203,0.332,0.314,0.307,0.162,0.098,north,10.1,No
2017/10/24,00:20,0.323,0.203,0.333,0.313,0.306,0.161,0.097,north-northwest,9.8,No
2017/10/24,00:30,0.320,0.203,0.333,0.314,0.307,0.163,0.097,north,9.3,No
2017/10/24,00:40,0.322,0.204,0.331,0.313,0.307,0.163,0.099,north,9.5,No
2017/10/24,00:50,0.321,0.204,0.332,0.313,0.305,0.163,0.098,north-northwest,8.8,No
2017/10/24,01:00,0.321,0.204,0.332,0.314,0.307,0.162,0.097,north-northwest,7.0,No
2017/10/24,01:10,0.321,0.204,0.333,0.313,0.307,0.162,0.098,north-northwest,4.8,No
2017/10/24,01:20,0.320,0.203,0.334,0.314,0.307,0.163,0.097,northwest,3.6,No
2017/10/24,01:30,0.320,0.204,0.332,0.313,0.307,0.163,0.098,northwest,3.4,No
2017/10/24,01:40,0.322,0.203,0.334,0.313,0.307,0.162,0.099,northwest,2.2,No
2017/10/24,01:50,0.320,0.203,0.334,0.314,0.308,0.163,0.098,-,CALM,No
2017/10/24,02:00,0.323,0.204,0.332,0.315,0.308,0.162,0.098,west-southwest,0.9,No
2017/10/24,02:10,0.322,0.203,0.333,0.313,0.307,0.163,0.098,north,2.4,No
2017/10/24,02:20,0.320,0.204,0.332,0.315,0.308,0.163,0.098,northwest,2.3,No
2017/10/24,02:30,0.322,0.203,0.331,0.313,0.306,0.163,0.098,northwest,3.5,No
2017/10/24,02:40,0.320,0.204,0.334,0.313,0.307,0.162,0.097,west-northwest,2.3,No
2017/10/24,02:50,0.322,0.204,0.332,0.314,0.306,0.163,0.098,west-northwest,1.8,No
2017/10/24,03:00,0.321,0.203,0.333,0.314,0.305,0.163,0.097,west-northwest,2.9,No
2017/10/24,03:10,0.320,0.203,0.333,0.315,0.308,0.162,0.098,northwest,1.7,No
2017/10/24,03:20,0.322,0.204,0.333,0.315,0.306,0.163,0.099,north-northwest,2.4,No
2017/10/24,03:30,0.322,0.204,0.333,0.313,0.306,0.164,0.098,north,2.5,No
2017/10/24,03:40,0.321,0.205,0.334,0.313,0.307,0.164,0.098,north,3.5,No
2017/10/24,03:50,0.321,0.204,0.333,0.315,0.308,0.163,0.098,north-northwest,2.5,No
2017/10/24,04:00,0.321,0.203,0.333,0.314,0.307,0.164,0.098,north,2.5,No
2017/10/24,04:10,0.320,0.204,0.333,0.314,0.307,0.164,0.098,north-northwest,2.4,No
2017/10/24,04:20,0.320,0.204,0.333,0.314,0.306,0.163,0.098,north-northwest,2.3,No
2017/10/24,04:30,0.320,0.203,0.334,0.313,0.307,0.163,0.099,north-northwest,1.0,No
2017/10/24,04:40,0.321,0.203,0.333,0.313,0.307,0.163,0.099,northwest,0.6,No
2017/10/24,04:50,0.321,0.204,0.331,0.315,0.308,0.163,0.098,-,CALM,No
2017/10/24,05:00,0.320,0.205,0.335,0.314,0.308,0.163,0.098,north-northwest,0.9,No
2017/10/24,05:10,0.323,0.204,0.333,0.314,0.307,0.164,0.098,west-northwest,1.0,No
2017/10/24,05:20,0.322,0.205,0.334,0.314,0.305,0.163,0.098,west-northwest,1.7,No
2017/10/24,05:30,0.321,0.205,0.335,0.314,0.308,0.163,0.098,northwest,2.1,No
2017/10/24,05:40,0.321,0.203,0.334,0.315,0.306,0.164,0.098,north-northwest,2.7,No
2017/10/24,05:50,0.322,0.205,0.332,0.314,0.306,0.163,0.098,north-northwest,2.6,No
2017/10/24,06:00,0.321,0.203,0.334,0.313,0.307,0.163,0.099,north-northwest,2.6,No
2017/10/24,06:10,0.321,0.204,0.334,0.314,0.306,0.163,0.099,northwest,2.7,No
2017/10/24,06:20,0.321,0.205,0.333,0.314,0.306,0.164,0.098,north-northwest,3.2,No
2017/10/24,06:30,0.321,0.204,0.335,0.314,0.307,0.163,0.098,north-northwest,3.0,No
2017/10/24,06:40,0.321,0.204,0.333,0.314,0.307,0.163,0.098,north,2.2,No
2017/10/24,06:50,0.322,0.203,0.331,0.315,0.306,0.163,0.098,north,1.3,No
2017/10/24,07:00,0.321,0.204,0.333,0.314,0.306,0.164,0.098,north-northwest,2.2,No
2017/10/24,07:10,0.321,0.203,0.333,0.314,0.306,0.162,0.097,north-northwest,2.5,No
2017/10/24,07:20,0.321,0.205,0.333,0.313,0.308,0.163,0.098,north-northwest,2.0,No
2017/10/24,07:30,0.320,0.205,0.335,0.315,0.305,0.162,0.098,north-northwest,2.3,No
2017/10/24,07:40,0.322,0.204,0.333,0.312,0.306,0.163,0.098,north-northwest,2.7,No
2017/10/24,07:50,0.319,0.204,0.333,0.314,0.309,0.163,0.098,north-northwest,2.2,No
2017/10/24,08:00,0.320,0.205,0.334,0.314,0.305,0.163,0.098,north-northwest,2.2,No
2017/10/24,08:10,0.321,0.204,0.330,0.313,0.308,0.162,0.098,north-northwest,2.1,No
2017/10/24,08:20,0.320,0.204,0.334,0.314,0.307,0.163,0.098,north-northwest,1.4,No
2017/10/24,08:30,0.321,0.204,0.334,0.313,0.307,0.163,0.099,north-northwest,1.5,No
2017/10/24,08:40,0.319,0.204,0.332,0.316,0.307,0.163,0.098,north,4.3,No
2017/10/24,08:50,0.322,0.203,0.333,0.312,0.305,0.163,0.098,north-northwest,2.7,No
2017/10/24,09:00,0.320,0.204,0.332,0.316,0.307,0.163,0.099,north,2.5,No
2017/10/24,09:10,0.322,0.202,0.333,0.313,0.306,0.163,0.098,north-northwest,0.9,No
2017/10/24,09:20,0.320,0.205,0.334,0.314,0.306,0.162,0.097,south-southwest,1.6,No
2017/10/24,09:30,0.323,0.204,0.333,0.313,0.307,0.164,0.099,north,1.9,No
2017/10/24,09:40,0.320,0.205,0.333,0.315,0.307,0.163,0.098,-,CALM,No
2017/10/24,09:50,0.321,0.204,0.333,0.312,0.308,0.164,0.098,south,1.2,No
2017/10/24,10:00,0.321,0.204,0.333,0.316,0.306,0.163,0.098,north-northeast,2.5,No
2017/10/24,10:10,0.322,0.205,0.332,0.313,0.308,0.163,0.098,north-northeast,1.8,No
2017/10/24,10:20,0.321,0.204,0.334,0.315,0.306,0.163,0.099,north-northeast,1.9,No
2017/10/24,10:30,0.322,0.205,0.333,0.313,0.308,0.165,0.098,north-northeast,2.2,No
2017/10/24,10:40,0.320,0.203,0.335,0.315,0.306,0.163,0.098,north-northeast,2.1,No
2017/10/24,10:50,0.322,0.204,0.332,0.312,0.308,0.164,0.098,north-northeast,2.5,No
2017/10/24,11:00,0.321,0.205,0.333,0.316,0.306,0.162,0.097,north-northeast,1.7,No
2017/10/24,11:10,0.323,0.205,0.332,0.312,0.309,0.164,0.098,north-northeast,3.1,No
2017/10/24,11:20,0.322,0.204,0.333,0.314,0.307,0.163,0.098,north-northeast,1.9,No
2017/10/24,11:30,0.323,0.205,0.333,0.313,0.309,0.163,0.098,north-northeast,2.0,No
2017/10/24,11:40,0.322,0.204,0.336,0.316,0.305,0.164,0.098,north-northeast,1.6,No
2017/10/24,11:50,0.322,0.204,0.332,0.312,0.309,0.163,0.097,northeast,1.8,No
2017/10/24,12:00,0.320,0.204,0.334,0.316,0.307,0.163,0.098,-,CALM,No
2017/10/24,12:10,0.322,0.206,0.332,0.314,0.307,0.164,0.098,east-northeast,1.2,No
2017/10/24,12:20,0.321,0.204,0.335,0.316,0.308,0.164,0.098,northeast,1.2,No
2017/10/24,12:30,0.322,0.204,0.333,0.313,0.305,0.164,0.098,east-northeast,1.1,No
2017/10/24,12:40,0.320,0.204,0.335,0.316,0.309,0.165,0.098,east-southeast,1.1,No
2017/10/24,12:50,0.322,0.205,0.333,0.313,0.306,0.164,0.098,east-southeast,1.1,No
2017/10/24,13:00,0.319,0.204,0.334,0.317,0.309,0.165,0.098,southeast,1.0,No
2017/10/24,13:10,0.323,0.204,0.332,0.315,0.305,0.163,0.098,south-southeast,1.2,No
2017/10/24,13:20,0.320,0.204,0.333,0.315,0.310,0.165,0.099,south-southeast,0.6,No
2017/10/24,13:30,0.322,0.203,0.333,0.315,0.307,0.164,0.099,south,1.6,No
2017/10/24,13:40,0.320,0.204,0.334,0.318,0.310,0.165,0.098,south,1.5,No
2017/10/24,13:50,0.323,0.204,0.334,0.314,0.307,0.164,0.098,-,CALM,No
2017/10/24,14:00,0.320,0.206,0.335,0.315,0.309,0.164,0.099,south-southeast,2.0,No
2017/10/24,14:10,0.322,0.204,0.333,0.314,0.307,0.164,0.099,southeast,1.4,No
2017/10/24,14:20,0.321,0.205,0.334,0.318,0.309,0.164,0.098,south-southeast,1.1,No
2017/10/24,14:30,0.323,0.204,0.334,0.316,0.307,0.163,0.097,south,1.5,No
2017/10/24,14:40,0.322,0.205,0.334,0.315,0.309,0.165,0.098,south-southeast,1.7,No
2017/10/24,14:50,0.322,0.205,0.334,0.315,0.307,0.163,0.097,southeast,1.0,No
2017/10/24,15:00,0.322,0.206,0.333,0.317,0.309,0.164,0.099,south-southeast,1.1,No
2017/10/24,15:10,0.322,0.204,0.334,0.316,0.307,0.163,0.098,south-southwest,0.8,No
2017/10/24,15:20,0.320,0.205,0.333,0.318,0.309,0.164,0.098,south-southeast,1.6,No
2017/10/24,15:30,0.321,0.205,0.335,0.315,0.307,0.164,0.098,south-southeast,1.1,No
2017/10/24,15:40,0.320,0.204,0.333,0.317,0.309,0.164,0.099,southeast,1.4,No
2017/10/24,15:50,0.323,0.206,0.336,0.316,0.306,0.164,0.098,south,1.7,No
2017/10/24,16:00,0.321,0.205,0.333,0.318,0.308,0.164,0.098,south,1.3,No
2017/10/24,16:10,0.323,0.204,0.334,0.316,0.308,0.164,0.099,south,3.0,No
2017/10/24,16:20,0.320,0.205,0.333,0.317,0.310,0.164,0.099,south,2.9,No
2017/10/24,16:30,0.323,0.204,0.334,0.316,0.307,0.164,0.099,south,2.5,No
2017/10/24,16:40,0.321,0.205,0.334,0.315,0.310,0.164,0.097,south,3.7,No
2017/10/24,16:50,0.323,0.204,0.333,0.315,0.308,0.164,0.098,south,3.0,No
2017/10/24,17:00,0.321,0.206,0.336,0.317,0.308,0.165,0.098,south-southwest,4.1,No
2017/10/24,17:10,0.321,0.206,0.336,0.317,0.309,0.164,0.098,south-southwest,2.8,No
2017/10/24,17:20,0.322,0.205,0.335,0.316,0.308,0.164,0.098,southwest,1.9,No
2017/10/24,17:30,0.322,0.206,0.335,0.317,0.310,0.164,0.098,southwest,1.8,No
2017/10/24,17:40,0.322,0.205,0.334,0.316,0.307,0.165,0.099,southwest,1.7,No
2017/10/24,17:50,0.321,0.206,0.336,0.317,0.310,0.164,0.099,south-southwest,2.5,No
2017/10/24,18:00,0.321,0.205,0.334,0.317,0.307,0.164,0.097,southwest,2.1,No
2017/10/24,18:10,0.320,0.205,0.335,0.316,0.309,0.164,0.099,southwest,1.0,No
2017/10/24,18:20,0.322,0.206,0.335,0.317,0.309,0.165,0.098,west-southwest,1.1,No
2017/10/24,18:30,0.322,0.205,0.334,0.317,0.307,0.165,0.099,west-southwest,1.8,No
2017/10/24,18:40,0.320,0.206,0.335,0.317,0.309,0.165,0.098,southwest,2.6,No
2017/10/24,18:50,0.324,0.205,0.335,0.317,0.307,0.164,0.099,south-southwest,3.3,No
2017/10/24,19:00,0.321,0.204,0.336,0.317,0.309,0.164,0.098,southwest,1.4,No
2017/10/24,19:10,0.322,0.206,0.335,0.318,0.307,0.164,0.098,southwest,3.1,No
2017/10/24,19:20,0.323,0.205,0.336,0.317,0.308,0.165,0.098,south-southwest,5.6,No
2017/10/24,19:30,0.320,0.205,0.336,0.316,0.310,0.165,0.098,south-southwest,4.6,No
2017/10/24,19:40,0.323,0.206,0.335,0.317,0.307,0.164,0.099,south-southwest,5.3,No
2017/10/24,19:50,0.321,0.207,0.336,0.318,0.311,0.164,0.099,south-southwest,5.1,No
2017/10/24,20:00,0.323,0.205,0.334,0.318,0.308,0.166,0.098,south-southwest,4.4,No
2017/10/24,20:10,0.322,0.207,0.334,0.317,0.309,0.165,0.099,south-southwest,5.3,No
2017/10/24,20:20,0.322,0.205,0.335,0.316,0.307,0.165,0.099,south-southwest,5.5,No
2017/10/24,20:30,0.324,0.206,0.336,0.317,0.308,0.164,0.098,south-southwest,5.7,No
2017/10/24,20:40,0.321,0.204,0.335,0.316,0.308,0.165,0.099,south,11.0,No
2017/10/24,20:50,0.321,0.205,0.335,0.317,0.306,0.165,0.097,south-southwest,6.6,No
2017/10/24,21:00,0.323,0.205,0.334,0.318,0.309,0.165,0.098,south-southwest,4.8,No
2017/10/24,21:10,0.321,0.206,0.336,0.316,0.307,0.164,0.099,south-southwest,5.3,No
2017/10/24,21:20,0.323,0.206,0.335,0.318,0.308,0.165,0.098,south-southwest,6.2,No
2017/10/24,21:30,0.323,0.206,0.336,0.317,0.307,0.164,0.098,south-southwest,5.4,No
2017/10/24,21:40,0.322,0.205,0.334,0.316,0.307,0.165,0.098,south,14.5,No
2017/10/24,21:50,0.322,0.206,0.336,0.317,0.309,0.164,0.099,-,CALM,No
2017/10/24,22:00,0.321,0.206,0.336,0.317,0.307,0.166,0.099,south,8.4,No
2017/10/24,22:10,0.323,0.207,0.335,0.317,0.309,0.164,0.099,south,20.2,No
2017/10/24,22:20,0.321,0.205,0.334,0.317,0.308,0.164,0.098,-,CALM,No
2017/10/24,22:30,0.322,0.206,0.336,0.317,0.309,0.165,0.098,-,CALM,No
2017/10/24,22:40,0.323,0.205,0.335,0.317,0.311,0.164,0.098,south,8.8,No
2017/10/24,22:50,0.321,0.205,0.336,0.316,0.308,0.166,0.099,-,CALM,No
2017/10/24,23:00,0.323,0.207,0.334,0.316,0.309,0.164,0.099,-,CALM,No
2017/10/24,23:10,0.320,0.205,0.335,0.318,0.307,0.165,0.099,south,13.1,No
2017/10/24,23:20,0.324,0.207,0.336,0.316,0.309,0.165,0.099,south-southwest,6.8,No
2017/10/24,23:30,0.322,0.208,0.334,0.318,0.309,0.165,0.099,south-southwest,4.5,No
2017/10/24,23:40,0.320,0.206,0.335,0.318,0.308,0.165,0.098,-,CALM,No
2017/10/24,23:50,0.322,0.207,0.336,0.316,0.309,0.163,0.099,south-southwest,9.2,No
